Year,Month,Day,Hour,Minute,Value (Times are PST for temperature in C)
2018,04,27,00,00,15.30
2018,04,27,00,01,15.30
2018,04,27,00,02,15.30
2018,04,27,00,03,15.20
2018,04,27,00,04,15.20
2018,04,27,00,05,15.20
2018,04,27,00,06,15.20
2018,04,27,00,07,15.10
2018,04,27,00,08,15.10
2018,04,27,00,09,15.00
2018,04,27,00,10,15.00
2018,04,27,00,11,15.00
2018,04,27,00,12,14.90
2018,04,27,00,13,14.90
2018,04,27,00,14,14.90
2018,04,27,00,15,14.90
2018,04,27,00,16,15.00
2018,04,27,00,17,15.00
2018,04,27,00,18,15.00
2018,04,27,00,19,15.10
2018,04,27,00,20,15.10
2018,04,27,00,21,15.10
2018,04,27,00,22,15.10
2018,04,27,00,23,15.10
2018,04,27,00,24,15.10
2018,04,27,00,25,15.10
2018,04,27,00,26,15.10
2018,04,27,00,27,15.10
2018,04,27,00,28,15.10
2018,04,27,00,29,15.10
2018,04,27,00,30,15.10
2018,04,27,00,31,15.10
2018,04,27,00,32,15.10
2018,04,27,00,33,15.10
2018,04,27,00,34,15.10
2018,04,27,00,35,15.10
2018,04,27,00,36,15.10
2018,04,27,00,37,15.10
2018,04,27,00,38,15.10
2018,04,27,00,39,15.10
2018,04,27,00,40,15.10
2018,04,27,00,41,15.10
2018,04,27,00,42,15.10
2018,04,27,00,43,15.00
2018,04,27,00,44,15.00
2018,04,27,00,45,15.00
2018,04,27,00,46,15.00
2018,04,27,00,47,14.90
2018,04,27,00,48,14.90
2018,04,27,00,49,14.90
2018,04,27,00,50,14.90
2018,04,27,00,51,14.90
2018,04,27,00,52,14.90
2018,04,27,00,53,14.80
2018,04,27,00,54,14.80
2018,04,27,00,55,14.80
2018,04,27,00,56,14.80
2018,04,27,00,57,14.80
2018,04,27,00,58,14.80
2018,04,27,00,59,14.80
2018,04,27,01,00,14.80
2018,04,27,01,01,14.80
2018,04,27,01,02,14.80
2018,04,27,01,03,14.80
2018,04,27,01,04,14.80
2018,04,27,01,05,14.80
2018,04,27,01,06,14.70
2018,04,27,01,07,14.70
2018,04,27,01,08,14.70
2018,04,27,01,09,14.70
2018,04,27,01,10,14.60
2018,04,27,01,11,14.60
2018,04,27,01,12,14.60
2018,04,27,01,13,14.50
2018,04,27,01,14,14.50
2018,04,27,01,15,14.50
2018,04,27,01,16,14.50
2018,04,27,01,17,14.50
2018,04,27,01,18,14.50
2018,04,27,01,19,14.60
2018,04,27,01,20,14.60
2018,04,27,01,21,14.60
2018,04,27,01,22,14.60
2018,04,27,01,23,14.70
2018,04,27,01,24,14.70
2018,04,27,01,25,14.70
2018,04,27,01,26,14.80
2018,04,27,01,27,14.80
2018,04,27,01,28,14.80
2018,04,27,01,29,14.80
2018,04,27,01,30,14.80
2018,04,27,01,31,14.80
2018,04,27,01,32,14.80
2018,04,27,01,33,14.70
2018,04,27,01,34,14.70
2018,04,27,01,35,14.70
2018,04,27,01,36,14.70
2018,04,27,01,37,14.80
2018,04,27,01,38,14.80
2018,04,27,01,39,14.90
2018,04,27,01,40,14.90
2018,04,27,01,41,14.90
2018,04,27,01,42,14.90
2018,04,27,01,43,15.00
2018,04,27,01,44,15.00
2018,04,27,01,45,15.00
2018,04,27,01,46,15.00
2018,04,27,01,47,15.00
2018,04,27,01,48,15.00
2018,04,27,01,49,15.00
2018,04,27,01,50,14.90
2018,04,27,01,51,14.90
2018,04,27,01,52,14.80
2018,04,27,01,53,14.80
2018,04,27,01,54,14.70
2018,04,27,01,55,14.70
2018,04,27,01,56,14.60
2018,04,27,01,57,14.50
2018,04,27,01,58,14.50
2018,04,27,01,59,14.40
2018,04,27,02,00,14.40
2018,04,27,02,01,14.40
2018,04,27,02,02,14.40
2018,04,27,02,03,14.40
2018,04,27,02,04,14.40
2018,04,27,02,05,14.40
2018,04,27,02,06,14.40
2018,04,27,02,07,14.40
2018,04,27,02,08,14.40
2018,04,27,02,09,14.50
2018,04,27,02,10,14.50
2018,04,27,02,11,14.60
2018,04,27,02,12,14.60
2018,04,27,02,13,14.60
2018,04,27,02,14,14.60
2018,04,27,02,15,14.60
2018,04,27,02,16,14.60
2018,04,27,02,17,14.60
2018,04,27,02,18,14.60
2018,04,27,02,19,14.60
2018,04,27,02,20,14.50
2018,04,27,02,21,14.50
2018,04,27,02,22,14.50
2018,04,27,02,23,14.50
2018,04,27,02,24,14.50
2018,04,27,02,25,14.50
2018,04,27,02,26,14.40
2018,04,27,02,27,14.40
2018,04,27,02,28,14.40
2018,04,27,02,29,14.40
2018,04,27,02,30,14.30
2018,04,27,02,31,14.30
2018,04,27,02,32,14.30
2018,04,27,02,33,14.40
2018,04,27,02,34,14.40
2018,04,27,02,35,14.50
2018,04,27,02,36,14.50
2018,04,27,02,37,14.50
2018,04,27,02,38,14.50
2018,04,27,02,39,14.40
2018,04,27,02,40,14.40
2018,04,27,02,41,14.40
2018,04,27,02,42,14.50
2018,04,27,02,43,14.60
2018,04,27,02,44,14.70
2018,04,27,02,45,14.80
2018,04,27,02,46,14.80
2018,04,27,02,47,14.90
2018,04,27,02,48,14.90
2018,04,27,02,49,14.90
2018,04,27,02,50,14.80
2018,04,27,02,51,14.80
2018,04,27,02,52,14.70
2018,04,27,02,53,14.70
2018,04,27,02,54,14.70
2018,04,27,02,55,14.60
2018,04,27,02,56,14.60
2018,04,27,02,57,14.60
2018,04,27,02,58,14.50
2018,04,27,02,59,14.40
2018,04,27,03,00,14.40
2018,04,27,03,01,14.30
2018,04,27,03,02,14.30
2018,04,27,03,03,14.20
2018,04,27,03,04,14.20
2018,04,27,03,05,14.10
2018,04,27,03,06,14.10
2018,04,27,03,07,14.10
2018,04,27,03,08,14.10
2018,04,27,03,09,14.00
2018,04,27,03,10,14.00
2018,04,27,03,11,13.90
2018,04,27,03,12,13.90
2018,04,27,03,13,13.90
2018,04,27,03,14,13.90
2018,04,27,03,15,13.90
2018,04,27,03,16,13.90
2018,04,27,03,17,13.80
2018,04,27,03,18,13.80
2018,04,27,03,19,13.80
2018,04,27,03,20,13.80
2018,04,27,03,21,13.80
2018,04,27,03,22,13.80
2018,04,27,03,23,13.80
2018,04,27,03,24,13.80
2018,04,27,03,25,13.80
2018,04,27,03,26,13.70
2018,04,27,03,27,13.70
2018,04,27,03,28,13.70
2018,04,27,03,29,13.70
2018,04,27,03,30,13.70
2018,04,27,03,31,13.70
2018,04,27,03,32,13.70
2018,04,27,03,33,13.70
2018,04,27,03,34,13.70
2018,04,27,03,35,13.70
2018,04,27,03,36,13.60
2018,04,27,03,37,13.60
2018,04,27,03,38,13.50
2018,04,27,03,39,13.50
2018,04,27,03,40,13.40
2018,04,27,03,41,13.40
2018,04,27,03,42,13.40
2018,04,27,03,43,13.30
2018,04,27,03,44,13.40
2018,04,27,03,45,13.40
2018,04,27,03,46,13.40
2018,04,27,03,47,13.40
2018,04,27,03,48,13.50
2018,04,27,03,49,13.50
2018,04,27,03,50,13.50
2018,04,27,03,51,13.50
2018,04,27,03,52,13.50
2018,04,27,03,53,13.60
2018,04,27,03,54,13.60
2018,04,27,03,55,13.60
2018,04,27,03,56,13.60
2018,04,27,03,57,13.60
2018,04,27,03,58,13.60
2018,04,27,03,59,13.60
2018,04,27,04,00,13.60
2018,04,27,04,01,13.60
2018,04,27,04,02,13.50
2018,04,27,04,03,13.50
2018,04,27,04,04,13.50
2018,04,27,04,05,13.40
2018,04,27,04,06,13.40
2018,04,27,04,07,13.30
2018,04,27,04,08,13.30
2018,04,27,04,09,13.30
2018,04,27,04,10,13.30
2018,04,27,04,11,13.30
2018,04,27,04,12,13.30
2018,04,27,04,13,13.30
2018,04,27,04,14,13.30
2018,04,27,04,15,13.30
2018,04,27,04,16,13.30
2018,04,27,04,17,13.30
2018,04,27,04,18,13.30
2018,04,27,04,19,13.30
2018,04,27,04,20,13.20
2018,04,27,04,21,13.20
2018,04,27,04,22,13.20
2018,04,27,04,23,13.20
2018,04,27,04,24,13.10
2018,04,27,04,25,13.10
2018,04,27,04,26,13.10
2018,04,27,04,27,13.10
2018,04,27,04,28,13.10
2018,04,27,04,29,13.10
2018,04,27,04,30,13.10
2018,04,27,04,31,13.10
2018,04,27,04,32,13.00
2018,04,27,04,33,13.00
2018,04,27,04,34,12.90
2018,04,27,04,35,12.90
2018,04,27,04,36,12.90
2018,04,27,04,37,12.80
2018,04,27,04,38,12.80
2018,04,27,04,39,12.80
2018,04,27,04,40,12.80
2018,04,27,04,41,12.70
2018,04,27,04,42,12.70
2018,04,27,04,43,12.70
2018,04,27,04,44,12.70
2018,04,27,04,45,12.60
2018,04,27,04,46,12.60
2018,04,27,04,47,12.60
2018,04,27,04,48,12.60
2018,04,27,04,49,12.60
2018,04,27,04,50,12.50
2018,04,27,04,51,12.50
2018,04,27,04,52,12.50
2018,04,27,04,53,12.40
2018,04,27,04,54,12.40
2018,04,27,04,55,12.40
2018,04,27,04,56,12.40
2018,04,27,04,57,12.40
2018,04,27,04,58,12.30
2018,04,27,04,59,12.30
2018,04,27,05,00,12.30
2018,04,27,05,01,12.30
2018,04,27,05,02,12.30
2018,04,27,05,03,12.30
2018,04,27,05,04,12.20
2018,04,27,05,05,12.20
2018,04,27,05,06,12.20
2018,04,27,05,07,12.20
2018,04,27,05,08,12.30
2018,04,27,05,09,12.30
2018,04,27,05,10,12.40
2018,04,27,05,11,12.40
2018,04,27,05,12,12.50
2018,04,27,05,13,12.60
2018,04,27,05,14,12.60
2018,04,27,05,15,12.70
2018,04,27,05,16,12.70
2018,04,27,05,17,12.80
2018,04,27,05,18,12.80
2018,04,27,05,19,12.80
2018,04,27,05,20,12.80
2018,04,27,05,21,12.80
2018,04,27,05,22,12.90
2018,04,27,05,23,13.00
2018,04,27,05,24,13.00
2018,04,27,05,25,13.10
2018,04,27,05,26,13.10
2018,04,27,05,27,13.20
2018,04,27,05,28,13.20
2018,04,27,05,29,13.20
2018,04,27,05,30,13.30
2018,04,27,05,31,13.40
2018,04,27,05,32,13.50
2018,04,27,05,33,13.50
2018,04,27,05,34,13.60
2018,04,27,05,35,13.60
2018,04,27,05,36,13.60
2018,04,27,05,37,13.60
2018,04,27,05,38,13.60
2018,04,27,05,39,13.60
2018,04,27,05,40,13.60
2018,04,27,05,41,13.60
2018,04,27,05,42,13.60
2018,04,27,05,43,13.50
2018,04,27,05,44,13.40
2018,04,27,05,45,13.30
2018,04,27,05,46,13.30
2018,04,27,05,47,13.20
2018,04,27,05,48,13.10
2018,04,27,05,49,13.00
2018,04,27,05,50,12.90
2018,04,27,05,51,12.80
2018,04,27,05,52,12.70
2018,04,27,05,53,12.60
2018,04,27,05,54,12.60
2018,04,27,05,55,12.50
2018,04,27,05,56,12.40
2018,04,27,05,57,12.40
2018,04,27,05,58,12.30
2018,04,27,05,59,12.30
2018,04,27,06,00,12.20
2018,04,27,06,01,12.10
2018,04,27,06,02,12.10
2018,04,27,06,03,12.00
2018,04,27,06,04,11.90
2018,04,27,06,05,11.90
2018,04,27,06,06,11.80
2018,04,27,06,07,11.80
2018,04,27,06,08,11.80
2018,04,27,06,09,11.70
2018,04,27,06,10,11.70
2018,04,27,06,11,11.60
2018,04,27,06,12,11.60
2018,04,27,06,13,11.60
2018,04,27,06,14,11.50
2018,04,27,06,15,11.40
2018,04,27,06,16,11.40
2018,04,27,06,17,11.40
2018,04,27,06,18,11.30
2018,04,27,06,19,11.30
2018,04,27,06,20,11.30
2018,04,27,06,21,11.30
2018,04,27,06,22,11.20
2018,04,27,06,23,11.20
2018,04,27,06,24,11.20
2018,04,27,06,25,11.10
2018,04,27,06,26,11.10
2018,04,27,06,27,11.10
2018,04,27,06,28,11.10
2018,04,27,06,29,11.00
2018,04,27,06,30,11.00
2018,04,27,06,31,11.00
2018,04,27,06,32,10.90
2018,04,27,06,33,10.90
2018,04,27,06,34,10.90
2018,04,27,06,35,10.90
2018,04,27,06,36,10.90
2018,04,27,06,37,10.80
2018,04,27,06,38,10.80
2018,04,27,06,39,10.80
2018,04,27,06,40,10.80
2018,04,27,06,41,10.80
2018,04,27,06,42,10.80
2018,04,27,06,43,10.80
2018,04,27,06,44,10.80
2018,04,27,06,45,10.80
2018,04,27,06,46,10.80
2018,04,27,06,47,10.70
2018,04,27,06,48,10.70
2018,04,27,06,49,10.70
2018,04,27,06,50,10.70
2018,04,27,06,51,10.70
2018,04,27,06,52,10.60
2018,04,27,06,53,10.60
2018,04,27,06,54,10.60
2018,04,27,06,55,10.60
2018,04,27,06,56,10.60
2018,04,27,06,57,10.60
2018,04,27,06,58,10.60
2018,04,27,06,59,10.60
2018,04,27,07,00,10.60
2018,04,27,07,01,10.60
2018,04,27,07,02,10.60
2018,04,27,07,03,10.60
2018,04,27,07,04,10.60
2018,04,27,07,05,10.60
2018,04,27,07,06,10.60
2018,04,27,07,07,10.60
2018,04,27,07,08,10.70
2018,04,27,07,09,10.70
2018,04,27,07,10,10.70
2018,04,27,07,11,10.70
2018,04,27,07,12,10.80
2018,04,27,07,13,10.80
2018,04,27,07,14,10.80
2018,04,27,07,15,10.80
2018,04,27,07,16,10.80
2018,04,27,07,17,10.80
2018,04,27,07,18,10.80
2018,04,27,07,19,10.90
2018,04,27,07,20,11.00
2018,04,27,07,21,11.00
2018,04,27,07,22,11.10
2018,04,27,07,23,11.20
2018,04,27,07,24,11.30
2018,04,27,07,25,11.40
2018,04,27,07,26,11.60
2018,04,27,07,27,11.70
2018,04,27,07,28,11.80
2018,04,27,07,29,11.90
2018,04,27,07,30,12.00
2018,04,27,07,31,12.10
2018,04,27,07,32,12.20
2018,04,27,07,33,12.30
2018,04,27,07,34,12.30
2018,04,27,07,35,12.40
2018,04,27,07,36,12.50
2018,04,27,07,37,12.50
2018,04,27,07,38,12.60
2018,04,27,07,39,12.70
2018,04,27,07,40,12.70
2018,04,27,07,41,12.70
2018,04,27,07,42,12.70
2018,04,27,07,43,12.70
2018,04,27,07,44,12.60
2018,04,27,07,45,12.60
2018,04,27,07,46,12.60
2018,04,27,07,47,12.60
2018,04,27,07,48,12.50
2018,04,27,07,49,12.50
2018,04,27,07,50,12.50
2018,04,27,07,51,12.60
2018,04,27,07,52,12.60
2018,04,27,07,53,12.60
2018,04,27,07,54,12.60
2018,04,27,07,55,12.60
2018,04,27,07,56,12.60
2018,04,27,07,57,12.70
2018,04,27,07,58,12.70
2018,04,27,07,59,12.70
2018,04,27,08,00,12.70
2018,04,27,08,01,12.70
2018,04,27,08,02,12.80
2018,04,27,08,03,12.80
2018,04,27,08,04,12.80
2018,04,27,08,05,12.80
2018,04,27,08,06,12.80
2018,04,27,08,07,12.90
2018,04,27,08,08,12.90
2018,04,27,08,09,13.00
2018,04,27,08,10,13.00
2018,04,27,08,11,13.10
2018,04,27,08,12,13.10
2018,04,27,08,13,13.10
2018,04,27,08,14,13.20
2018,04,27,08,15,13.20
2018,04,27,08,16,13.20
2018,04,27,08,17,13.30
2018,04,27,08,18,13.30
2018,04,27,08,19,13.30
2018,04,27,08,20,13.30
2018,04,27,08,21,13.40
2018,04,27,08,22,13.40
2018,04,27,08,23,13.50
2018,04,27,08,24,13.50
2018,04,27,08,25,13.60
2018,04,27,08,26,13.70
2018,04,27,08,27,13.70
2018,04,27,08,28,13.70
2018,04,27,08,29,13.80
2018,04,27,08,30,13.80
2018,04,27,08,31,13.80
2018,04,27,08,32,13.80
2018,04,27,08,33,13.90
2018,04,27,08,34,13.90
2018,04,27,08,35,13.90
2018,04,27,08,36,13.90
2018,04,27,08,37,14.00
2018,04,27,08,38,14.10
2018,04,27,08,39,14.10
2018,04,27,08,40,14.20
2018,04,27,08,41,14.20
2018,04,27,08,42,14.20
2018,04,27,08,43,14.30
2018,04,27,08,44,14.30
2018,04,27,08,45,14.30
2018,04,27,08,46,14.30
2018,04,27,08,47,14.40
2018,04,27,08,48,14.40
2018,04,27,08,49,14.40
2018,04,27,08,50,14.40
2018,04,27,08,51,14.50
2018,04,27,08,52,14.50
2018,04,27,08,53,14.60
2018,04,27,08,54,14.60
2018,04,27,08,55,14.60
2018,04,27,08,56,14.70
2018,04,27,08,57,14.70
2018,04,27,08,58,14.80
2018,04,27,08,59,14.80
2018,04,27,09,00,14.80
2018,04,27,09,01,14.80
2018,04,27,09,02,14.90
2018,04,27,09,03,14.90
2018,04,27,09,04,14.90
2018,04,27,09,05,14.90
2018,04,27,09,06,14.90
2018,04,27,09,07,14.90
2018,04,27,09,08,14.90
2018,04,27,09,09,15.00
2018,04,27,09,10,15.00
2018,04,27,09,11,15.00
2018,04,27,09,12,15.10
2018,04,27,09,13,15.10
2018,04,27,09,14,15.10
2018,04,27,09,15,15.10
2018,04,27,09,16,15.20
2018,04,27,09,17,15.20
2018,04,27,09,18,15.20
2018,04,27,09,19,15.20
2018,04,27,09,20,15.30
2018,04,27,09,21,15.30
2018,04,27,09,22,15.30
2018,04,27,09,23,15.30
2018,04,27,09,24,15.30
2018,04,27,09,25,15.30
2018,04,27,09,26,15.20
2018,04,27,09,27,15.20
2018,04,27,09,28,15.20
2018,04,27,09,29,15.20
2018,04,27,09,30,15.20
2018,04,27,09,31,15.20
2018,04,27,09,32,15.30
2018,04,27,09,33,15.30
2018,04,27,09,34,15.30
2018,04,27,09,35,15.30
2018,04,27,09,36,15.40
2018,04,27,09,37,15.40
2018,04,27,09,38,15.50
2018,04,27,09,39,15.50
2018,04,27,09,40,15.60
2018,04,27,09,41,15.70
2018,04,27,09,42,15.70
2018,04,27,09,43,15.80
2018,04,27,09,44,15.90
2018,04,27,09,45,15.90
2018,04,27,09,46,15.90
2018,04,27,09,47,15.90
2018,04,27,09,48,15.90
2018,04,27,09,49,16.00
2018,04,27,09,50,16.00
2018,04,27,09,51,16.00
2018,04,27,09,52,16.00
2018,04,27,09,53,16.00
2018,04,27,09,54,16.00
2018,04,27,09,55,16.10
2018,04,27,09,56,16.10
2018,04,27,09,57,16.10
2018,04,27,09,58,16.10
2018,04,27,09,59,16.10
2018,04,27,10,00,16.00
2018,04,27,10,01,16.00
2018,04,27,10,02,16.00
2018,04,27,10,03,15.90
2018,04,27,10,04,15.90
2018,04,27,10,05,16.00
2018,04,27,10,06,16.00
2018,04,27,10,07,16.00
2018,04,27,10,08,16.10
2018,04,27,10,09,16.10
2018,04,27,10,10,16.20
2018,04,27,10,11,16.20
2018,04,27,10,12,16.30
2018,04,27,10,13,16.30
2018,04,27,10,14,16.30
2018,04,27,10,15,16.40
2018,04,27,10,16,16.40
2018,04,27,10,17,16.50
2018,04,27,10,18,16.50
2018,04,27,10,19,16.60
2018,04,27,10,20,16.60
2018,04,27,10,21,16.70
2018,04,27,10,22,16.70
2018,04,27,10,23,16.80
2018,04,27,10,24,16.80
2018,04,27,10,25,16.80
2018,04,27,10,26,16.70
2018,04,27,10,27,16.70
2018,04,27,10,28,16.70
2018,04,27,10,29,16.80
2018,04,27,10,30,16.80
2018,04,27,10,31,16.70
2018,04,27,10,32,16.70
2018,04,27,10,33,16.70
2018,04,27,10,34,16.70
2018,04,27,10,35,16.70
2018,04,27,10,36,16.60
2018,04,27,10,37,16.60
2018,04,27,10,38,16.70
2018,04,27,10,39,16.70
2018,04,27,10,40,16.70
2018,04,27,10,41,16.80
2018,04,27,10,42,16.80
2018,04,27,10,43,16.90
2018,04,27,10,44,17.00
2018,04,27,10,45,17.00
2018,04,27,10,46,17.10
2018,04,27,10,47,17.20
2018,04,27,10,48,17.30
2018,04,27,10,49,17.40
2018,04,27,10,50,17.40
2018,04,27,10,51,17.40
2018,04,27,10,52,17.40
2018,04,27,10,53,17.40
2018,04,27,10,54,17.30
2018,04,27,10,55,17.20
2018,04,27,10,56,17.00
2018,04,27,10,57,17.00
2018,04,27,10,58,17.00
2018,04,27,10,59,16.90
2018,04,27,11,00,16.90
2018,04,27,11,01,16.90
2018,04,27,11,02,16.90
2018,04,27,11,03,16.80
2018,04,27,11,04,16.80
2018,04,27,11,05,16.80
2018,04,27,11,06,16.80
2018,04,27,11,07,16.80
2018,04,27,11,08,16.80
2018,04,27,11,09,16.80
2018,04,27,11,10,16.80
2018,04,27,11,11,16.80
2018,04,27,11,12,16.80
2018,04,27,11,13,16.90
2018,04,27,11,14,16.90
2018,04,27,11,15,16.90
2018,04,27,11,16,16.90
2018,04,27,11,17,16.90
2018,04,27,11,18,16.80
2018,04,27,11,19,16.70
2018,04,27,11,20,16.70
2018,04,27,11,21,16.60
2018,04,27,11,22,16.50
2018,04,27,11,23,16.40
2018,04,27,11,24,16.30
2018,04,27,11,25,16.30
2018,04,27,11,26,16.30
2018,04,27,11,27,16.20
2018,04,27,11,28,16.20
2018,04,27,11,29,16.10
2018,04,27,11,30,16.10
2018,04,27,11,31,16.20
2018,04,27,11,32,16.30
2018,04,27,11,33,16.30
2018,04,27,11,34,16.30
2018,04,27,11,35,16.40
2018,04,27,11,36,16.50
2018,04,27,11,37,16.60
2018,04,27,11,38,16.60
2018,04,27,11,39,16.70
2018,04,27,11,40,16.80
2018,04,27,11,41,16.90
2018,04,27,11,42,16.90
2018,04,27,11,43,17.00
2018,04,27,11,44,17.00
2018,04,27,11,45,17.10
2018,04,27,11,46,17.10
2018,04,27,11,47,17.10
2018,04,27,11,48,17.10
2018,04,27,11,49,17.10
2018,04,27,11,50,17.10
2018,04,27,11,51,17.10
2018,04,27,11,52,17.00
2018,04,27,11,53,17.00
2018,04,27,11,54,17.00
2018,04,27,11,55,16.90
2018,04,27,11,56,16.90
2018,04,27,11,57,16.90
2018,04,27,11,58,16.90
2018,04,27,11,59,16.80
2018,04,27,12,00,16.80
2018,04,27,12,01,16.70
2018,04,27,12,02,16.70
2018,04,27,12,03,16.60
2018,04,27,12,04,16.50
2018,04,27,12,05,16.40
2018,04,27,12,06,16.40
2018,04,27,12,07,16.40
2018,04,27,12,08,16.40
2018,04,27,12,09,16.50
2018,04,27,12,10,16.50
2018,04,27,12,11,16.60
2018,04,27,12,12,16.70
2018,04,27,12,13,16.70
2018,04,27,12,14,16.70
2018,04,27,12,15,16.70
2018,04,27,12,16,16.80
2018,04,27,12,17,16.90
2018,04,27,12,18,17.00
2018,04,27,12,19,17.00
2018,04,27,12,20,17.00
2018,04,27,12,21,16.90
2018,04,27,12,22,16.80
2018,04,27,12,23,16.70
2018,04,27,12,24,16.60
2018,04,27,12,25,16.60
2018,04,27,12,26,16.60
2018,04,27,12,27,16.50
2018,04,27,12,28,16.40
2018,04,27,12,29,16.30
2018,04,27,12,30,16.30
2018,04,27,12,31,16.30
2018,04,27,12,32,16.30
2018,04,27,12,33,16.30
2018,04,27,12,34,16.20
2018,04,27,12,35,16.20
2018,04,27,12,36,16.10
2018,04,27,12,37,16.20
2018,04,27,12,38,16.20
2018,04,27,12,39,16.20
2018,04,27,12,40,16.30
2018,04,27,12,41,16.30
2018,04,27,12,42,16.30
2018,04,27,12,43,16.30
2018,04,27,12,44,16.30
2018,04,27,12,45,16.30
2018,04,27,12,46,16.30
2018,04,27,12,47,16.30
2018,04,27,12,48,16.30
2018,04,27,12,49,16.30
2018,04,27,12,50,16.30
2018,04,27,12,51,16.30
2018,04,27,12,52,16.30
2018,04,27,12,53,16.30
2018,04,27,12,54,16.40
2018,04,27,12,55,16.40
2018,04,27,12,56,16.40
2018,04,27,12,57,16.40
2018,04,27,12,58,16.30
2018,04,27,12,59,16.30
2018,04,27,13,00,16.30
2018,04,27,13,01,16.20
2018,04,27,13,02,16.10
2018,04,27,13,03,16.10
2018,04,27,13,04,16.10
2018,04,27,13,05,16.10
2018,04,27,13,06,16.10
2018,04,27,13,07,16.20
2018,04,27,13,08,16.20
2018,04,27,13,09,16.30
2018,04,27,13,10,16.20
2018,04,27,13,11,16.10
2018,04,27,13,12,16.10
2018,04,27,13,13,16.00
2018,04,27,13,14,16.10
2018,04,27,13,15,16.10
2018,04,27,13,16,16.10
2018,04,27,13,17,16.10
2018,04,27,13,18,16.10
2018,04,27,13,19,16.10
2018,04,27,13,20,16.10
2018,04,27,13,21,16.10
2018,04,27,13,22,16.10
2018,04,27,13,23,16.10
2018,04,27,13,24,16.10
2018,04,27,13,25,16.00
2018,04,27,13,26,16.00
2018,04,27,13,27,15.90
2018,04,27,13,28,15.90
2018,04,27,13,29,15.90
2018,04,27,13,30,15.80
2018,04,27,13,31,15.70
2018,04,27,13,32,15.70
2018,04,27,13,33,15.60
2018,04,27,13,34,15.60
2018,04,27,13,35,15.60
2018,04,27,13,36,15.50
2018,04,27,13,37,15.50
2018,04,27,13,38,15.60
2018,04,27,13,39,15.60
2018,04,27,13,40,15.60
2018,04,27,13,41,15.60
2018,04,27,13,42,15.60
2018,04,27,13,43,15.60
2018,04,27,13,44,15.60
2018,04,27,13,45,15.70
2018,04,27,13,46,15.70
2018,04,27,13,47,15.80
2018,04,27,13,48,15.80
2018,04,27,13,49,15.80
2018,04,27,13,50,15.80
2018,04,27,13,51,15.80
2018,04,27,13,52,15.70
2018,04,27,13,53,15.60
2018,04,27,13,54,15.60
2018,04,27,13,55,15.60
2018,04,27,13,56,15.60
2018,04,27,13,57,15.60
2018,04,27,13,58,15.70
2018,04,27,13,59,15.70
2018,04,27,14,00,15.70
2018,04,27,14,01,15.60
2018,04,27,14,02,15.50
2018,04,27,14,03,15.50
2018,04,27,14,04,15.40
2018,04,27,14,05,15.40
2018,04,27,14,06,15.40
2018,04,27,14,07,15.50
2018,04,27,14,08,15.50
2018,04,27,14,09,15.70
2018,04,27,14,10,15.80
2018,04,27,14,11,15.90
2018,04,27,14,12,15.90
2018,04,27,14,13,16.00
2018,04,27,14,14,16.10
2018,04,27,14,15,16.10
2018,04,27,14,16,16.10
2018,04,27,14,17,16.10
2018,04,27,14,18,16.10
2018,04,27,14,19,16.10
2018,04,27,14,20,16.10
2018,04,27,14,21,16.10
2018,04,27,14,22,16.20
2018,04,27,14,23,16.20
2018,04,27,14,24,16.30
2018,04,27,14,25,16.30
2018,04,27,14,26,16.40
2018,04,27,14,27,16.40
2018,04,27,14,28,16.50
2018,04,27,14,29,16.50
2018,04,27,14,30,16.50
2018,04,27,14,31,16.50
2018,04,27,14,32,16.50
2018,04,27,14,33,16.40
2018,04,27,14,34,16.40
2018,04,27,14,35,16.30
2018,04,27,14,36,16.30
2018,04,27,14,37,16.20
2018,04,27,14,38,16.20
2018,04,27,14,39,16.20
2018,04,27,14,40,16.20
2018,04,27,14,41,16.10
2018,04,27,14,42,16.10
2018,04,27,14,43,16.10
2018,04,27,14,44,16.10
2018,04,27,14,45,16.00
2018,04,27,14,46,15.90
2018,04,27,14,47,15.90
2018,04,27,14,48,15.90
2018,04,27,14,49,15.90
2018,04,27,14,50,15.90
2018,04,27,14,51,16.00
2018,04,27,14,52,16.10
2018,04,27,14,53,16.20
2018,04,27,14,54,16.20
2018,04,27,14,55,16.20
2018,04,27,14,56,16.30
2018,04,27,14,57,16.30
2018,04,27,14,58,16.20
2018,04,27,14,59,16.30
2018,04,27,15,00,16.20
2018,04,27,15,01,16.20
2018,04,27,15,02,16.10
2018,04,27,15,03,16.10
2018,04,27,15,04,16.10
2018,04,27,15,05,16.00
2018,04,27,15,06,16.00
2018,04,27,15,07,16.00
2018,04,27,15,08,16.00
2018,04,27,15,09,15.90
2018,04,27,15,10,15.80
2018,04,27,15,11,15.80
2018,04,27,15,12,15.80
2018,04,27,15,13,15.70
2018,04,27,15,14,15.70
2018,04,27,15,15,15.70
2018,04,27,15,16,15.70
2018,04,27,15,17,15.70
2018,04,27,15,18,15.70
2018,04,27,15,19,15.60
2018,04,27,15,20,15.60
2018,04,27,15,21,15.70
2018,04,27,15,22,15.70
2018,04,27,15,23,15.60
2018,04,27,15,24,15.60
2018,04,27,15,25,15.60
2018,04,27,15,26,15.50
2018,04,27,15,27,15.40
2018,04,27,15,28,15.30
2018,04,27,15,29,15.20
2018,04,27,15,30,15.20
2018,04,27,15,31,15.20
2018,04,27,15,32,15.10
2018,04,27,15,33,15.10
2018,04,27,15,34,15.10
2018,04,27,15,35,15.10
2018,04,27,15,36,15.10
2018,04,27,15,37,15.10
2018,04,27,15,38,15.00
2018,04,27,15,39,15.00
2018,04,27,15,40,14.90
2018,04,27,15,41,14.90
2018,04,27,15,42,14.80
2018,04,27,15,43,14.80
2018,04,27,15,44,14.80
2018,04,27,15,45,14.80
2018,04,27,15,46,14.70
2018,04,27,15,47,14.70
2018,04,27,15,48,14.70
2018,04,27,15,49,14.70
2018,04,27,15,50,14.70
2018,04,27,15,51,14.70
2018,04,27,15,52,14.80
2018,04,27,15,53,14.80
2018,04,27,15,54,14.90
2018,04,27,15,55,15.00
2018,04,27,15,56,15.00
2018,04,27,15,57,15.00
2018,04,27,15,58,15.00
2018,04,27,15,59,14.90
2018,04,27,16,00,14.90
2018,04,27,16,01,14.80
2018,04,27,16,02,14.80
2018,04,27,16,03,14.70
2018,04,27,16,04,14.70
2018,04,27,16,05,14.70
2018,04,27,16,06,14.70
2018,04,27,16,07,14.70
2018,04,27,16,08,14.70
2018,04,27,16,09,14.70
2018,04,27,16,10,14.70
2018,04,27,16,11,14.70
2018,04,27,16,12,14.70
2018,04,27,16,13,14.80
2018,04,27,16,14,14.80
2018,04,27,16,15,14.80
2018,04,27,16,16,14.90
2018,04,27,16,17,14.90
2018,04,27,16,18,14.90
2018,04,27,16,19,14.90
2018,04,27,16,20,15.00
2018,04,27,16,21,15.00
2018,04,27,16,22,15.10
2018,04,27,16,23,15.20
2018,04,27,16,24,15.30
2018,04,27,16,25,15.30
2018,04,27,16,26,15.30
2018,04,27,16,27,15.30
2018,04,27,16,28,15.30
2018,04,27,16,29,15.30
2018,04,27,16,30,15.30
2018,04,27,16,31,15.30
2018,04,27,16,32,15.30
2018,04,27,16,33,15.30
2018,04,27,16,34,15.30
2018,04,27,16,35,15.30
2018,04,27,16,36,15.30
2018,04,27,16,37,15.30
2018,04,27,16,38,15.30
2018,04,27,16,39,15.30
2018,04,27,16,40,15.30
2018,04,27,16,41,15.30
2018,04,27,16,42,15.30
2018,04,27,16,43,15.40
2018,04,27,16,44,15.30
2018,04,27,16,45,15.30
2018,04,27,16,46,15.40
2018,04,27,16,47,15.40
2018,04,27,16,48,15.40
2018,04,27,16,49,15.40
2018,04,27,16,50,15.40
2018,04,27,16,51,15.40
2018,04,27,16,52,15.40
2018,04,27,16,53,15.40
2018,04,27,16,54,15.40
2018,04,27,16,55,15.40
2018,04,27,16,56,15.40
2018,04,27,16,57,15.50
2018,04,27,16,58,15.60
2018,04,27,16,59,15.70
2018,04,27,17,00,15.80
2018,04,27,17,01,15.80
2018,04,27,17,02,15.80
2018,04,27,17,03,15.80
2018,04,27,17,04,15.90
2018,04,27,17,05,15.90
2018,04,27,17,06,15.90
2018,04,27,17,07,16.00
2018,04,27,17,08,16.00
2018,04,27,17,09,16.10
2018,04,27,17,10,16.10
2018,04,27,17,11,16.20
2018,04,27,17,12,16.30
2018,04,27,17,13,16.30
2018,04,27,17,14,16.40
2018,04,27,17,15,16.40
2018,04,27,17,16,16.40
2018,04,27,17,17,16.40
2018,04,27,17,18,16.30
2018,04,27,17,19,16.30